| time (UTC) | temp F | wind direction | speed knots | gust knots | rain 1hr in | rain 24hr in | rain mn in | humidity % | barometer mb |
| 20260505064540 | 59 | 105 | 5.2 | 13.0 | 0.00 | 0.00 | 0.00 | 51 | 1005.6 |
| 20260505063037 | 58 | 107 | 6.1 | 16.5 | 0.00 | 0.00 | 0.00 | 52 | 1005.5 |
| 20260505061641 | 58 | 113 | 1.7 | 7.8 | 0.00 | 0.00 | 0.00 | 52 | 1005.4 |
| 20260505060038 | 59 | 118 | 2.6 | 6.1 | 0.00 | 0.00 | 0.00 | 52 | 1005.4 |
| 20260505054550 | 59 | 111 | 3.5 | 7.0 | 0.00 | 0.00 | 0.00 | 51 | 1005.4 |
| 20260505053052 | 60 | 110 | 0.0 | 3.5 | 0.00 | 0.00 | 0.00 | 49 | 1005.3 |
| 20260505051638 | 60 | 104 | 2.6 | 9.6 | 0.00 | 0.00 | 0.00 | 50 | 1005.3 |
| 20260505041639 | 63 | 355 | 0.0 | 1.7 | 0.00 | 0.00 | 0.00 | 45 | 1004.7 |
| 20260505040043 | 63 | 355 | 0.0 | 2.6 | 0.00 | 0.00 | 0.00 | 44 | 1004.7 |
| 20260505034538 | 64 | 355 | 0.9 | 5.2 | 0.00 | 0.00 | 0.00 | 42 | 1004.7 |
| 20260505033043 | 66 | 355 | 0.0 | 5.2 | 0.00 | 0.00 | 0.00 | 40 | 1004.4 |
| 20260505031638 | 67 | 360 | 1.7 | 8.7 | 0.00 | 0.00 | 0.00 | 39 | 1004.2 |
| 20260505030038 | 68 | 360 | 1.7 | 10.4 | 0.00 | 0.00 | 0.00 | 39 | 1004.1 |
| 20260505024537 | 68 | 350 | 5.2 | 11.3 | 0.00 | 0.00 | 0.00 | 39 | 1004.1 |
| 20260505023036 | 69 | 5 | 5.2 | 11.3 | 0.00 | 0.00 | 0.00 | 37 | 1003.9 |
| 20260505021640 | 72 | 9 | 5.2 | 9.6 | 0.00 | 0.00 | 0.00 | 34 | 1003.9 |
| 20260505020035 | 72 | 11 | 4.3 | 12.2 | 0.00 | 0.00 | 0.00 | 33 | 1003.8 |
| 20260505014535 | 72 | 11 | 6.1 | 13.9 | 0.00 | 0.00 | 0.00 | 32 | 1003.7 |
| 20260505013034 | 73 | 5 | 7.8 | 15.6 | 0.00 | 0.00 | 0.00 | 31 | 1003.7 |
| 20260505011634 | 75 | 5 | 4.3 | 13.9 | 0.00 | 0.00 | 0.00 | 32 | 1003.8 |
| 20260505010033 | 75 | 26 | 7.0 | 13.0 | 0.00 | 0.00 | 0.00 | 30 | 1003.8 |
| 20260505004535 | 76 | 12 | 3.5 | 13.0 | 0.00 | 0.00 | 0.00 | 28 | 1004.0 |
| 20260505003031 | 75 | 312 | 6.1 | 17.4 | 0.00 | 0.00 | 0.00 | 28 | 1003.9 |
| 20260505001633 | 76 | 10 | 7.8 | 18.2 | 0.00 | 0.00 | 0.00 | 31 | 1004.0 |
| 20260505000032 | 77 | 343 | 5.2 | 17.4 | 0.00 | 0.00 | 0.00 | 31 | 1003.9 |
| 20260504234528 | 76 | 345 | 6.1 | 18.2 | 0.00 | 0.00 | 0.00 | 31 | 1004.0 |
| 20260504233025 | 76 | 324 | 9.6 | 18.2 | 0.00 | 0.00 | 0.00 | 31 | 1004.1 |
| 20260504231624 | 76 | 355 | 9.6 | 18.2 | 0.00 | 0.00 | 0.00 | 30 | 1004.0 |
| 20260504230027 | 76 | 9 | 7.8 | 16.5 | 0.00 | 0.00 | 0.00 | 31 | 1004.1 |
| 20260504224521 | 76 | 333 | 5.2 | 20.0 | 0.00 | 0.00 | 0.00 | 33 | 1004.2 |
| 20260504223020 | 76 | 9 | 5.2 | 13.9 | 0.00 | 0.00 | 0.00 | 32 | 1004.3 |
| 20260504221619 | 76 | 315 | 6.1 | 16.5 | 0.00 | 0.00 | 0.00 | 35 | 1004.4 |
| 20260504220021 | 75 | 305 | 5.2 | 16.5 | 0.00 | 0.00 | 0.00 | 34 | 1004.6 |
| 20260504214614 | 75 | 5 | 6.1 | 14.8 | 0.00 | 0.00 | 0.00 | 36 | 1004.6 |
| 20260504213014 | 75 | 355 | 6.1 | 20.0 | 0.00 | 0.00 | 0.00 | 34 | 1004.7 |
| 20260504211613 | 75 | 299 | 7.0 | 21.7 | 0.00 | 0.00 | 0.00 | 36 | 1004.8 |
| 20260504210014 | 75 | 281 | 6.1 | 20.9 | 0.00 | 0.00 | 0.00 | 35 | 1004.9 |
| 20260504204511 | 74 | 329 | 5.2 | 16.5 | 0.00 | 0.00 | 0.00 | 35 | 1005.0 |
| 20260504203012 | 74 | 203 | 4.3 | 13.0 | 0.00 | 0.00 | 0.00 | 39 | 1005.1 |
| 20260504201606 | 73 | 267 | 7.0 | 21.7 | 0.00 | 0.00 | 0.00 | 41 | 1005.1 |
| 20260504200012 | 73 | 244 | 7.0 | 16.5 | 0.00 | 0.00 | 0.00 | 40 | 1005.2 |
| 20260504194506 | 72 | 318 | 8.7 | 16.5 | 0.00 | 0.00 | 0.00 | 39 | 1005.2 |
| 20260504193004 | 72 | 278 | 7.8 | 16.5 | 0.00 | 0.00 | 0.00 | 41 | 1005.4 |
| 20260504191602 | 71 | 186 | 4.3 | 14.8 | 0.00 | 0.00 | 0.00 | 43 | 1005.4 |
| 20260504190010 | 71 | 231 | 5.2 | 13.0 | 0.00 | 0.00 | 0.00 | 44 | 1005.4 |
| 20260504184511 | 70 | 215 | 6.1 | 16.5 | 0.00 | 0.00 | 0.00 | 42 | 1005.4 |
| 20260504183003 | 70 | 248 | 6.1 | 16.5 | 0.00 | 0.00 | 0.00 | 40 | 1005.5 |
| 20260504181600 | 69 | 188 | 7.0 | 18.2 | 0.00 | 0.00 | 0.00 | 44 | 1005.5 |
| 20260504174606 | 68 | 241 | 6.1 | 16.5 | 0.00 | 0.00 | 0.00 | 46 | 1005.5 |
| 20260504173103 | 68 | 254 | 5.2 | 14.8 | 0.00 | 0.00 | 0.00 | 42 | 1005.5 |
| 20260504171555 | 68 | 202 | 4.3 | 9.6 | 0.00 | 0.00 | 0.00 | 44 | 1005.4 |